Voltar ao catálogo

COSMOS 1867 COOLANT

AtivoLEO
NORAD 39647·DEBRIS·🇷🇺 Russia

Lançado Jul 10, 1987 de Baikonur Cosmodrome

Loading…

Próximas Passagens (próximas 24 horas)

TLE

AtualizadoSource: Space-Track

Época: Sep 14, 2026, 06:02 UTC

1 39647U 87060Q   26257.25198224  .00000121  00000-0  79737-4 0  9996
2 39647  65.0085 127.8080 0019833 277.5605  82.3227 14.33547853650195

Acompanhe COSMOS 1867 COOLANT em tempo real com AllMySat

Download on the App Store